星链-2731 (STARLINK-2731 )

导读 | 星芒AI

STARLINK-2731 是 SpaceX Starlink 卫星互联网项目中的第 2731 颗卫星,属于低轨卫星群的一部分。该卫星于 2023 年发射,旨在为全球用户提供高速、低延迟的互联网服务。它运行在约 550 公里的轨道高度,采用先进的通信技术,支持全球范围内的宽带接入。Starlink 项目致力于改善偏远地区的网络覆盖,推动全球数字连接。STARLINK-2731 的部署进一步增强了 Starlink 网络的稳定性和服务能力。

基本信息
目录编号:
48651
目录名称:
STARLINK-2731
国际标识:
2021-044P
轨道中心:
EARTH
卫星名称:
星链-2731
卫星全名:
星链-2731 (STARLINK-2731 )
卫星状态:
在轨 (已飞行1618 天)
发射日期:
2021-05-26 UTC
国别 :
美国 (US)
星等 :
--
轨道信息
数据来源 国际轨道数据
星历时间: 2025-10-30T15:34:02+0800
8小时前
查看轨道信息
半长轴: 6925.367km
偏心率: 0.0001987
轨道倾角: 53.055°
近地点辐角 91.253°
升交点赤经 346.890°
平近点角 268.868°
近地点: 545.855km
远地点: 548.609km
周期: 95.593分钟
每日圈数: 15.06394
详细信息
固有亮度:
5
最大亮度:
2.5
卫星平台:
Starlink V1.0
覆盖范围:
全球
运营商:
太空探索技术公司
运营商所在国:
美国
制造商(研发单位):
太空探索技术公司
制造商所在国:
美国
使用方式:
暂无
卫星简介
星链(Starlink)计划是由太空探索技术公司(SpaceX)提出的一个巨型低轨卫星互联网星座项目,计划在2019年至2024年间在太空搭建由约1.2万颗卫星组成的“星链”网络,其中1584颗将部署在地球上空550千米处的近地轨道,并从2020年开始工作。该卫星仍在工作。
2D轨道图
3D轨道图
轨道高度分析图
轨道倾角分析图
轨道综合分析图
查看轨道综合分析图